Location: Peebles
(55.6412°N, 3.1714°W)
Time: 16:22:08
(UTC+01:00)

OBJECT A - Visible Passes

Search period start: 03 July 2022 00:00
Search period end: 13 July 2022 00:00
Orbit: 610 x 633 km, 97.9° (Epoch: 02 July)

Date Brightness Start Highest point End Pass type
(mag) Time Alt. Az. Time Alt. Az. Time Alt. Az.
03 Jul ? 00:07:19 10° SSW 00:11:10 31° W 00:15:03 10° NNW visible
04 Jul ? 00:25:49 10° SW 00:29:13 22° W 00:32:38 10° NW visible
04 Jul ? 23:06:14 10° SSE 23:10:35 83° ENE 23:14:54 10° NNW visible
05 Jul ? 00:44:37 10° SW 00:47:18 16° W 00:50:01 10° NW visible
05 Jul ? 23:24:09 10° S 23:28:28 70° WSW 23:32:48 10° NNW visible
06 Jul ? 01:04:03 10° WSW 01:05:27 11° W 01:06:50 10° WNW visible
06 Jul ? 23:42:12 10° S 23:46:24 49° W 23:50:37 10° NNW visible
08 Jul ? 00:00:25 10° SSW 00:04:23 35° W 00:08:21 10° NNW visible
09 Jul ? 00:18:50 10° SSW 00:22:24 25° W 00:25:59 10° NW visible
09 Jul ? 22:59:30 10° SSE 23:03:48 73° ENE 23:08:07 10° NNW visible
10 Jul ? 00:37:28 10° SW 00:40:27 18° W 00:43:27 10° NW visible
10 Jul ? 23:17:21 10° SSE 23:21:40 80° WSW 23:26:01 10° NNW visible
11 Jul ? 00:56:35 10° WSW 00:58:34 13° W 01:00:34 10° WNW visible
11 Jul ? 23:35:22 10° S 23:39:36 56° W 23:43:51 10° NNW visible
